Satellite: POLLUX
Catalog number: 35693
Epoch time:      09267.15150619
Element set:      55
Inclination:      051.6398 deg
RA of node:       155.6978 deg
Eccentricity:    0.0002999
Arg of perigee:   202.5979 deg
Mean anomaly:     157.5010 deg
Mean motion:   15.82117463 rev/day
Decay rate:     2.5324e-04 rev/day^2
Epoch rev:             877
Checksum:              326

Satellite: CASTOR
Catalog number: 35694
Epoch time:      09267.80341062
Element set:      53
Inclination:      051.6408 deg
RA of node:       152.5617 deg
Eccentricity:    0.0003143
Arg of perigee:   214.4095 deg
Mean anomaly:     145.6690 deg
Mean motion:   15.81064969 rev/day
Decay rate:     1.3764e-04 rev/day^2
Epoch rev:             887
Checksum:              301

Satellite: METEOR-M
Catalog number: 35865
Epoch time:      09267.76253122
Element set:       8
Inclination:      098.8003 deg
RA of node:       317.9196 deg
Eccentricity:    0.0003392
Arg of perigee:   063.6114 deg
Mean anomaly:     296.5400 deg
Mean motion:   14.21825734 rev/day
Decay rate:       1.76e-06 rev/day^2
Epoch rev:             100
Checksum:              277

Satellite: OBJECT-B
Catalog number: 35866
Epoch time:      09267.76020534
Element set:       9
Inclination:      098.8007 deg
RA of node:       317.9269 deg
Eccentricity:    0.0004133
Arg of perigee:   060.3718 deg
Mean anomaly:     299.7853 deg
Mean motion:   14.22295747 rev/day
Decay rate:       1.78e-06 rev/day^2
Epoch rev:             100
Checksum:              306

Satellite: FREGAT-I
Catalog number: 35867
Epoch time:      09267.69394093
Element set:      19
Inclination:      097.3746 deg
RA of node:       317.6403 deg
Eccentricity:    0.0008464
Arg of perigee:   263.5757 deg
Mean anomaly:     096.4296 deg
Mean motion:   15.22710586 rev/day
Decay rate:      2.263e-05 rev/day^2
Epoch rev:             106
Checksum:              325

/EX



_______________________________________________
Via the Keps mailing list courtesy of AMSAT-NA
http://amsat.org/mailman/listinfo/keps

--- ViaMAIL!/WC v1.60d
 * Origin: Chowdanet (401-724-4410) telnet://chowdanet.com  (1:323/120)